Total_Precipitation_Accumulation
0.73 0.71 0.73 0.68 0.68 0.69 0.75 0.87 1.09 0.98 0.61 0.45 0.45 0.47 0.55 0.61 0.61 0.57 0.56 0.67 0.74 0.82 0.93 0.98 1.07 1.27 1.63 2.21 2.84 3.76 4.37 4.03 3.26 2.75 2.68 2.97 3.41 3.85
0.80 0.81 0.77 0.73 0.75 0.78 0.82 0.83 0.90 1.03 0.82 0.45 0.41 0.43 0.52 0.67 0.75 0.65 0.61 0.75 0.78 0.80 0.82 0.86 0.94 1.12 1.37 1.71 2.16 2.76 3.66 4.14 3.91 3.41 3.04 3.12 3.36 3.74
0.83 0.85 0.81 0.78 0.86 0.89 0.94 0.93 0.88 0.91 0.94 0.56 0.45 0.49 0.63 0.74 0.81 0.76 0.75 0.74 0.74 0.78 0.80 0.85 0.90 1.03 1.24 1.47 1.71 2.10 2.76 3.50 3.93 3.95 3.65 3.39 3.35 3.41
0.88 0.89 0.88 0.85 0.89 0.92 1.00 1.00 0.92 0.86 0.93 0.78 0.60 0.63 0.73 0.82 0.85 0.83 0.82 0.80 0.72 0.75 0.77 0.88 0.94 1.02 1.17 1.34 1.49 1.72 2.12 2.66 3.22 3.66 3.80 3.49 3.30 3.33
0.85 0.90 0.93 0.94 0.90 0.90 1.00 1.05 0.99 0.93 0.96 0.96 0.76 0.69 0.78 0.90 1.01 1.00 0.95 0.93 0.82 0.80 0.82 0.90 0.99 1.02 1.08 1.23 1.41 1.57 1.75 1.93 2.33 2.96 3.57 3.63 3.38 3.34
0.77 0.79 0.89 1.02 1.04 1.05 1.09 1.08 1.10 1.15 1.14 1.12 0.97 0.85 0.90 0.99 1.13 1.18 1.15 1.09 1.02 0.92 0.96 1.01 1.07 1.10 1.07 1.08 1.15 1.29 1.46 1.75 2.08 2.54 3.02 3.40 3.42 3.35
0.76 0.71 0.81 1.05 1.24 1.42 1.47 1.36 1.37 1.50 1.47 1.42 1.30 1.14 1.05 1.10 1.20 1.19 1.26 1.18 1.16 1.11 1.06 1.07 1.02 1.00 0.98 1.00 1.05 1.12 1.22 1.44 1.73 2.07 2.49 2.86 3.13 3.27
0.85 0.75 0.80 1.04 1.18 1.31 1.46 1.45 1.49 1.68 1.79 1.74 1.58 1.37 1.07 0.97 1.05 1.24 1.44 1.59 1.52 1.28 1.18 1.19 1.03 1.01 0.97 0.91 1.02 1.11 1.16 1.31 1.52 1.77 2.08 2.40 2.71 3.03
0.86 0.81 0.83 0.93 1.06 1.08 1.19 1.23 1.26 1.45 1.70 1.80 1.75 1.37 1.15 1.05 1.24 1.47 1.54 1.66 1.54 1.45 1.47 1.53 1.23 1.12 1.02 1.03 1.14 1.12 1.17 1.23 1.34 1.50 1.75 1.99 2.27 2.61
0.91 0.85 0.79 0.83 0.95 1.11 1.19 1.16 1.08 1.16 1.40 1.60 1.79 1.59 1.38 1.40 1.67 1.92 2.02 2.05 1.80 1.67 1.63 1.84 1.52 1.28 1.17 1.13 1.20 1.12 1.10 1.13 1.19 1.28 1.45 1.67 1.90 2.21
0.95 0.89 0.79 0.75 0.94 1.11 1.09 1.07 1.00 1.04 1.17 1.38 1.53 1.60 1.62 1.77 2.06 2.45 2.62 2.60 2.34 2.02 1.81 1.84 1.77 1.61 1.56 1.51 1.43 1.31 1.13 1.06 1.08 1.14 1.23 1.39 1.63 1.99
0.96 0.92 0.98 0.96 1.06 1.08 1.00 1.06 1.15 1.04 0.99 1.04 1.09 1.14 1.20 1.35 1.76 2.20 2.55 2.66 2.44 2.35 2.04 1.84 1.85 1.87 2.23 2.04 1.68 1.39 1.21 1.14 1.09 1.08 1.12 1.16 1.34 1.50
0.99 0.98 0.93 1.07 1.10 1.07 1.04 1.03 1.20 1.12 1.03 1.10 1.08 1.01 1.01 1.12 1.29 1.64 2.16 2.55 2.56 2.33 2.05 2.06 2.17 1.88 2.03 2.13 1.91 1.54 1.21 1.09 1.03 1.07 1.08 1.08 1.13 1.19
0.97 0.90 0.88 1.04 1.09 1.13 1.09 1.13 1.18 1.17 1.09 1.10 1.04 0.97 0.97 1.06 1.21 1.41 1.70 2.03 2.20 2.12 1.94 2.07 2.42 2.09 1.84 1.73 1.74 1.72 1.39 1.17 1.02 0.97 0.97 1.14 1.21 1.22
1.07 1.10 1.06 1.14 1.18 1.10 1.07 1.11 1.07 1.02 1.09 1.12 1.01 0.87 0.86 0.96 1.07 1.18 1.30 1.52 1.74 1.81 1.84 1.92 2.17 2.19 2.02 1.76 1.46 1.41 1.43 1.43 1.19 1.03 0.98 0.99 1.00 1.02
1.21 1.20 1.21 1.22 1.19 1.13 1.07 0.97 0.89 0.91 1.00 1.03 0.96 0.85 0.78 0.83 0.96 1.07 1.18 1.29 1.55 1.72 1.79 1.92 2.16 2.38 2.30 1.73 1.45 1.29 1.16 1.43 1.39 1.16 1.05 1.01 0.94 0.84
1.30 1.34 1.29 1.24 1.23 1.12 0.97 0.86 0.82 0.87 0.92 0.89 0.89 0.90 0.86 0.85 0.87 0.95 1.13 1.24 1.42 1.55 1.73 2.01 2.26 2.37 2.41 2.14 1.80 1.40 1.12 1.12 1.22 1.16 1.09 1.11 1.11 0.97
1.34 1.32 1.16 1.02 0.97 0.93 0.87 0.81 0.78 0.77 0.76 0.80 0.86 0.87 0.86 0.87 0.88 0.90 1.04 1.20 1.34 1.42 1.52 1.75 2.11 2.40 2.56 2.57 2.11 1.54 1.22 1.16 1.27 1.25 1.12 1.11 1.22 1.15
1.14 1.01 0.91 0.85 0.82 0.79 0.76 0.74 0.74 0.69 0.69 0.75 0.81 0.82 0.81 0.85 0.89 0.91 0.98 1.11 1.24 1.36 1.48 1.60 1.85 2.17 2.34 2.49 2.51 1.90 1.43 1.27 1.36 1.50 1.35 1.12 1.10 1.16
0.86 0.85 0.83 0.81 0.83 0.84 0.81 0.78 0.74 0.73 0.74 0.72 0.73 0.75 0.78 0.85 0.88 0.88 0.92 1.05 1.16 1.27 1.41 1.52 1.73 1.96 2.11 2.05 2.16 2.18 1.95 1.54 1.37 1.53 1.54 1.34 1.23 1.32
0.79 0.79 0.79 0.81 0.85 0.87 0.82 0.79 0.77 0.73 0.69 0.68 0.67 0.66 0.70 0.79 0.82 0.79 0.86 0.98 1.07 1.17 1.26 1.37 1.57 1.76 1.91 1.93 1.86 1.86 2.05 2.04 1.59 1.46 1.51 1.52 1.46 1.44
0.78 0.80 0.79 0.81 0.86 0.88 0.85 0.81 0.79 0.75 0.69 0.66 0.64 0.62 0.64 0.71 0.77 0.78 0.84 0.92 0.95 1.03 1.14 1.27 1.44 1.63 1.83 1.96 1.87 1.73 1.86 2.07 2.04 1.77 1.58 1.46 1.44 1.44
0.84 0.85 0.84 0.83 0.83 0.85 0.85 0.81 0.77 0.74 0.69 0.67 0.64 0.63 0.65 0.69 0.70 0.76 0.82 0.85 0.89 0.94 1.04 1.23 1.40 1.55 1.75 1.87 1.88 1.74 1.69 1.80 1.85 1.82 1.90 1.65 1.23 1.01